Temperature
22 22 21 21 20 20 20 19 19 19 19 19 19 19 19 19 19 18 18 18 18 18 18 18 18 18 18 18 18 19 19 18 18 18 18 18 18 18 17 17 17 18 18
22 22 21 21 20 20 20 19 19 19 19 19 19 19 19 19 18 18 18 18 18 18 18 18 18 18 18 18 18 18 18 18 18 18 18 18 18 18 17 17 17 17 17
22 22 21 21 20 20 20 19 19 19 19 19 19 19 19 19 19 18 18 18 18 18 18 18 18 18 18 18 18 18 18 18 18 18 18 18 18 18 17 17 17 17 17
22 22 21 21 20 20 19 19 19 19 19 19 19 19 19 19 18 18 18 18 18 18 18 18 18 18 18 18 18 18 18 18 18 17 17 17 18 18 18 17 17 17 17
21 21 21 21 20 20 19 19 19 19 19 19 19 19 18 18 18 19 18 18 18 18 18 18 18 18 18 18 18 18 18 18 18 17 17 17 18 18 18 17 17 17 17
20 21 21 21 20 20 19 19 19 19 19 19 19 19 19 18 18 18 18 18 19 18 18 18 18 18 18 18 18 18 18 18 18 18 18 18 18 18 18 17 17 17 17
20 20 21 20 20 20 19 19 19 19 19 19 19 19 19 19 19 18 18 18 18 18 18 18 18 18 18 18 18 18 18 18 18 18 18 18 18 18 18 17 17 17 17
20 20 21 20 20 20 19 19 19 19 19 19 19 19 19 19 19 19 18 18 18 18 18 18 18 18 18 18 18 18 18 18 18 18 18 18 18 18 18 17 17 17 17
20 20 21 20 20 20 19 19 19 19 19 19 19 19 19 18 18 18 18 18 18 18 18 18 18 18 18 19 19 19 19 19 18 18 18 18 18 18 18 17 17 17 17
20 20 20 20 20 20 19 19 19 19 19 19 19 19 19 18 18 18 18 18 18 18 18 18 18 18 18 18 19 19 19 19 18 18 18 18 18 18 18 18 17 17 17
21 20 20 19 19 19 19 19 19 19 19 19 19 19 18 18 18 18 18 18 18 18 18 18 18 18 18 18 18 19 19 19 18 18 18 18 18 18 18 18 17 17 17
21 20 20 19 19 19 18 19 19 19 19 18 18 18 18 18 17 17 17 18 18 18 18 18 18 18 18 18 18 18 18 18 18 18 18 18 18 18 18 18 18 17 17
21 20 20 19 19 19 19 19 18 18 18 18 18 18 18 18 18 18 18 18 18 17 17 17 18 17 17 17 17 18 18 18 18 18 18 17 18 18 18 18 18 17 17
21 20 20 19 19 19 19 19 19 18 18 18 18 18 18 18 18 18 17 17 17 17 17 17 17 17 17 17 17 17 17 18 18 17 17 17 17 18 18 18 18 17 17
20 20 20 19 19 19 19 19 19 19 18 18 18 18 18 18 18 17 17 17 17 17 17 17 17 17 17 17 17 17 17 17 17 17 17 17 17 17 17 17 17 17 17
20 20 19 19 19 19 19 19 18 18 18 18 18 18 18 18 17 17 17 17 17 17 17 17 17 17 17 17 17 17 17 17 17 17 17 17 17 17 17 17 17 17 17
19 19 19 19 19 19 19 19 18 18 18 18 18 18 17 17 17 17 17 17 16 16 16 16 16 16 17 17 17 17 17 17 17 17 17 17 17 17 17 17 17 17 17
19 19 19 18 19 19 19 18 18 18 18 18 18 18 17 17 17 17 16 16 16 16 16 16 16 16 16 16 16 17 17 16 16 16 16 16 16 17 17 17 17 17 17
19 19 19 19 19 19 18 18 18 18 18 18 17 17 17 17 17 16 16 16 16 16 16 16 16 16 16 16 16 17 16 16 16 16 16 16 16 16 16 16 16 16 16
18 18 19 18 18 18 18 18 18 18 18 17 17 17 17 16 16 16 16 16 16 16 15 15 15 16 16 16 16 16 17 17 16 17 16 17 16 16 16 16 16 16 16
18 18 18 18 18 18 18 18 18 18 17 17 17 17 16 16 16 16 16 16 15 15 15 15 15 15 16 16 16 16 17 17 17 16 16 16 16 16 16 16 16 16 16
18 18 18 18 18 18 18 18 18 18 17 17 17 17 16 16 16 16 16 15 15 15 15 15 15 15 15 16 16 16 17 16 16 16 16 16 16 16 16 16 16 16 16
18 18 18 18 18 18 18 18 17 17 17 17 17 17 16 16 16 16 15 15 15 15 15 15 15 15 15 15 16 16 16 16 16 16 16 16 16 16 16 16 15 15 15
18 18 18 18 18 18 18 18 18 17 17 17 17 17 16 16 15 15 15 15 15 15 15 14 14 15 15 15 15 16 15 16 16 16 16 16 16 16 16 15 15 15 15
18 18 18 18 18 18 18 18 17 17 17 17 17 17 16 16 15 15 15 15 15 14 14 14 14 14 14 15 15 15 15 16 16 16 16 16 16 16 15 15 15 15 15
19 18 18 18 18 18 18 18 18 17 17 17 17 17 16 16 16 15 15 15 15 14 14 14 14 14 14 14 15 15 15 15 16 16 16 16 16 16 16 15 15 15 15
Wind_Speed
20 20 20 17 16 16 15 15 15 15 15 14 14 14 14 13 14 14 13 14 14 14 13 13 12 12 12 12 12 12 12 12 12 13 14 14 14 13 12 12 15 15 16
23 22 21 19 17 16 16 15 15 15 15 14 13 13 13 13 13 13 13 13 13 13 13 13 12 12 12 12 11 10 9 9 10 11 13 14 13 12 11 12 15 14 15
23 22 21 19 17 17 16 16 15 15 14 14 13 13 13 12 12 12 12 13 13 13 13 13 13 12 12 11 10 9 7 6 7 9 11 12 13 13 15 17 17 15 14
22 21 20 20 18 17 16 16 15 15 14 13 13 12 12 12 12 12 12 12 12 12 12 12 12 12 11 10 9 7 5 3 2 4 6 10 13 13 14 15 15 14 13
20 21 22 21 19 17 17 16 15 15 14 13 12 12 12 12 12 11 12 12 12 12 12 12 11 11 10 9 7 5 3 2 3 3 8 15 14 13 14 14 13 13 12
21 21 21 21 19 18 16 16 15 15 14 13 12 11 11 11 11 11 11 11 11 11 11 11 10 10 9 8 6 4 3 5 7 1 12 16 14 13 13 13 12 12 12
21 21 21 20 19 18 16 15 15 14 13 13 12 11 11 11 10 10 10 10 10 10 10 9 9 8 7 6 4 4 5 8 6 4 14 16 15 14 12 12 11 11 11
21 20 20 20 19 17 16 15 14 14 13 12 11 10 10 10 10 9 9 9 9 9 8 8 7 7 6 4 3 4 7 9 5 6 14 16 16 14 13 12 11 10 11
21 20 18 18 17 17 16 15 14 13 12 11 10 10 9 9 9 8 8 8 7 7 6 6 5 4 3 2 1 4 7 10 8 3 13 15 16 15 13 11 10 10 10
20 19 17 18 17 16 15 14 14 13 12 11 10 9 9 9 8 8 9 7 6 5 5 4 3 2 2 2 3 6 8 11 6 6 13 14 17 15 13 11 10 9 9
16 17 17 17 16 16 16 15 14 13 12 11 10 9 9 8 8 8 9 9 6 5 4 3 3 3 4 6 7 8 9 8 2 9 13 17 17 15 13 11 10 9 8
15 15 14 15 14 14 14 15 13 12 12 10 10 9 8 7 7 9 10 8 6 5 4 4 5 6 8 7 8 9 8 6 1 7 13 19 17 15 13 11 10 9 8
14 14 14 13 11 10 8 11 9 9 10 9 9 8 5 5 6 9 7 7 6 6 4 4 5 5 3 2 2 5 5 5 3 9 12 16 15 13 12 11 10 10 9
11 12 13 12 9 7 8 7 7 7 6 6 7 4 5 4 4 5 4 3 3 3 3 2 1 0 2 3 4 4 6 5 5 9 12 13 12 12 11 11 11 10 10
9 10 11 11 9 6 5 4 6 6 6 8 7 4 5 4 3 4 3 2 1 2 2 1 2 1 1 2 4 3 3 5 5 6 9 12 11 10 11 11 11 11 11
9 9 11 10 10 7 6 4 4 6 6 8 7 6 6 7 5 3 2 1 3 5 4 2 1 0 0 0 2 1 2 3 4 3 4 9 10 10 10 11 11 12 11
11 10 11 10 10 8 7 5 5 5 7 7 8 7 7 7 4 2 2 1 3 3 1 1 2 2 1 1 1 0 1 1 2 2 2 3 7 9 11 11 11 11 12
11 11 11 11 12 9 6 4 3 5 7 7 9 8 7 5 3 2 2 3 2 1 1 1 1 2 2 2 1 1 1 1 2 3 4 4 6 7 10 12 12 12 12
12 11 10 10 11 9 7 4 4 5 5 7 9 8 6 4 4 3 3 3 1 0 2 2 4 3 3 3 2 2 1 1 2 3 2 2 3 6 8 12 13 13 13
13 12 10 10 10 9 7 5 5 5 5 6 7 7 7 5 3 2 5 2 2 2 3 3 2 1 1 2 4 1 1 1 1 1 1 1 3 4 6 9 11 11 13
12 11 11 10 9 8 6 6 6 5 5 5 6 8 7 6 4 1 3 3 1 3 3 3 2 2 1 1 3 2 3 3 3 2 1 2 1 2 3 6 8 7 8
11 11 11 11 11 9 6 5 5 5 5 5 5 7 7 6 6 4 3 2 2 3 3 2 2 3 2 1 2 3 1 2 0 3 2 1 3 3 1 3 5 5 4
13 13 12 11 11 9 9 6 5 5 3 5 6 5 5 6 5 3 3 1 1 2 3 1 1 2 3 2 2 3 2 2 1 2 2 3 2 2 1 2 4 5 5
14 13 12 12 11 10 10 9 9 7 6 6 6 6 6 6 6 6 4 3 0 1 3 2 2 2 2 2 1 1 2 2 1 1 1 3 2 2 1 1 2 3 6
15 14 12 12 11 11 10 9 9 7 6 6 6 8 7 6 5 6 5 4 2 1 2 2 2 2 2 3 3 1 1 1 2 1 1 1 2 2 3 2 1 2 4
15 14 14 13 12 11 11 10 9 8 7 7 7 8 6 6 5 6 6 4 3 2 2 2 1 1 1 3 4 4 2 2 2 2 1 1 1 1 3 2 1 1 2
Wind_Direction
129 130 129 127 127 126 124 122 120 117 114 110 106 102 99 96 93 91 89 90 89 88 87 85 82 79 76 75 73 74 78 83 88 93 95 95 94 93 94 103 104 98 101
126 130 128 127 127 127 125 123 121 119 117 113 110 106 102 98 96 93 92 92 91 89 87 84 82 81 80 81 80 81 86 94 101 108 108 101 95 90 90 96 99 105 106
125 130 129 127 127 126 125 124 122 120 119 116 113 110 107 104 101 97 96 94 92 90 88 86 84 81 80 82 83 84 90 99 111 128 129 114 103 93 93 98 103 109 109
127 134 132 129 128 127 126 126 125 123 121 118 116 113 111 108 104 100 96 95 94 92 88 86 84 82 81 81 82 83 84 87 116 158 157 127 110 102 102 106 110 114 113
129 130 130 131 129 129 128 128 127 126 124 121 119 114 111 109 105 102 99 97 94 93 90 88 85 83 82 80 77 70 45 358 312 251 119 105 103 111 111 113 115 116 117
129 130 133 133 131 132 131 131 130 128 127 126 123 118 113 110 107 104 101 97 95 95 92 90 88 84 82 80 70 42 356 331 313 124 116 113 111 115 116 118 119 118 119
133 131 136 135 134 135 135 135 134 132 131 131 127 123 117 112 109 106 103 100 99 98 96 93 91 86 80 74 56 8 334 323 307 106 111 111 118 120 118 119 121 121 120
133 132 136 137 138 138 138 138 137 136 134 132 130 126 121 118 115 112 108 105 103 101 101 99 95 91 83 72 39 343 326 320 346 109 116 117 127 126 123 121 121 123 123
133 134 142 143 143 143 143 143 142 140 138 137 135 132 130 127 127 126 119 114 111 110 109 107 104 100 96 80 342 312 310 311 309 131 122 123 131 131 130 128 128 127 128
137 142 148 148 148 150 149 148 146 145 144 144 145 146 147 147 148 147 141 128 123 123 128 129 132 143 169 223 262 280 293 302 288 104 111 129 136 135 136 137 137 135 135
143 147 153 149 154 157 155 151 152 152 154 154 159 167 170 172 165 166 137 137 143 147 154 170 189 212 225 231 241 261 278 275 316 112 124 146 144 141 143 144 145 145 142
147 149 147 150 156 163 156 152 161 162 160 174 167 174 187 176 157 139 137 149 162 175 187 206 225 240 240 235 224 243 263 274 49 121 136 148 145 146 149 152 155 154 151
152 149 146 143 153 152 139 157 157 154 157 172 159 166 163 137 126 125 143 157 186 198 202 193 225 243 252 294 238 246 295 345 59 109 137 143 143 147 153 160 163 165 163
156 148 144 143 145 133 140 142 141 141 147 138 143 158 124 99 94 103 107 144 189 170 161 174 221 359 351 340 334 323 337 351 42 107 136 144 148 155 161 168 173 176 173
151 141 134 136 128 113 107 132 134 123 134 133 134 99 106 107 86 85 73 52 68 86 91 51 56 38 16 343 319 340 347 356 18 78 138 148 151 160 170 176 180 185 182
153 139 132 135 126 121 119 108 115 124 125 119 114 97 85 83 79 93 103 59 51 59 51 359 1 311 13 81 293 337 333 353 26 36 135 153 161 168 174 180 186 190 191
155 145 138 139 134 137 140 149 137 134 125 113 108 103 93 92 94 88 102 94 50 44 48 18 350 296 234 229 218 306 269 34 44 17 341 169 172 185 186 186 191 195 199
156 151 152 149 143 141 135 144 135 128 121 121 122 112 104 105 101 76 84 75 36 4 26 65 15 347 18 7 18 336 31 119 185 214 240 215 183 186 190 194 196 199 203
157 152 151 136 141 143 143 146 123 112 121 126 124 123 126 120 110 96 85 73 295 46 43 18 56 25 357 6 308 217 208 200 187 230 218 227 189 176 180 190 198 204 208
156 152 145 139 143 145 147 145 129 129 135 129 123 128 138 132 116 121 113 89 345 62 53 50 23 40 311 328 311 27 211 172 190 93 283 238 184 184 176 176 187 206 216
152 152 148 147 149 151 152 153 148 153 148 135 136 142 147 140 133 41 100 117 42 75 61 44 11 300 223 35 308 272 192 176 135 114 40 20 67 88 119 155 171 185 203
157 155 153 156 157 161 157 154 158 149 155 144 134 145 157 154 159 161 107 141 93 105 81 43 32 334 334 72 330 306 156 112 317 125 126 127 58 48 59 135 149 164 190
167 166 165 165 161 167 158 156 152 136 152 139 143 159 164 164 164 115 130 104 120 157 129 108 1 348 344 356 41 355 357 55 145 119 104 85 68 33 17 76 124 138 148
176 172 165 165 164 168 165 168 164 169 178 166 163 159 166 172 165 160 165 142 214 49 124 188 114 331 318 314 124 99 58 59 349 82 179 130 162 152 86 24 60 107 124
178 175 168 167 168 170 176 173 177 182 178 163 159 151 167 170 178 178 172 161 175 140 105 69 85 349 334 339 344 344 42 184 260 251 145 175 216 165 153 146 102 86 128
176 173 170 170 172 174 180 178 189 190 177 163 161 156 179 170 182 181 178 168 190 176 139 145 164 174 3 1 348 344 349 346 338 352 342 276 239 152 144 132 149 156 157
Height
1518 1520 1524 1527 1530 1533 1535 1537 1539 1540 1542 1543 1544 1545 1546 1547 1548 1548 1549 1550 1551 1552 1553 1553 1554 1555 1555 1556 1557 1558 1558 1559 1560 1561 1561 1562 1563 1563 1565 1566 1567 1568 1569
1516 1520 1525 1528 1531 1534 1536 1538 1540 1542 1543 1545 1546 1547 1548 1549 1550 1550 1551 1552 1553 1554 1554 1555 1556 1556 1557 1558 1558 1559 1560 1561 1562 1562 1563 1564 1565 1566 1567 1568 1569 1571 1572
1516 1521 1525 1529 1532 1535 1537 1539 1541 1543 1545 1546 1547 1548 1549 1550 1551 1552 1553 1554 1555 1555 1556 1557 1557 1558 1559 1559 1560 1561 1562 1563 1563 1564 1565 1566 1567 1568 1569 1570 1572 1573 1574
1517 1522 1525 1529 1533 1536 1538 1540 1543 1544 1546 1548 1549 1550 1551 1552 1553 1554 1555 1556 1556 1557 1558 1559 1559 1560 1560 1561 1562 1563 1564 1565 1565 1566 1567 1568 1569 1570 1571 1572 1573 1575 1576
1519 1523 1526 1530 1533 1536 1539 1541 1544 1545 1547 1549 1550 1551 1553 1554 1555 1556 1556 1557 1558 1559 1560 1560 1561 1562 1562 1563 1564 1565 1566 1567 1567 1568 1570 1570 1571 1572 1573 1574 1575 1577 1578
1520 1523 1527 1531 1534 1537 1540 1542 1545 1546 1548 1550 1551 1553 1554 1555 1556 1557 1558 1559 1559 1560 1561 1562 1563 1563 1564 1565 1566 1567 1567 1568 1568 1570 1571 1571 1572 1573 1574 1575 1577 1578 1580
1522 1524 1528 1532 1535 1538 1541 1543 1545 1547 1549 1551 1552 1554 1555 1556 1557 1558 1559 1560 1561 1562 1563 1563 1564 1565 1566 1566 1567 1568 1568 1569 1570 1571 1571 1572 1573 1574 1575 1577 1578 1580 1581
1522 1525 1529 1532 1536 1539 1541 1544 1546 1548 1550 1551 1553 1554 1556 1557 1558 1559 1560 1561 1562 1563 1564 1565 1565 1566 1567 1568 1568 1569 1569 1570 1571 1572 1572 1572 1573 1575 1576 1578 1579 1581 1582
1523 1525 1529 1533 1536 1539 1542 1544 1546 1548 1550 1552 1554 1555 1557 1558 1559 1560 1561 1562 1563 1564 1565 1566 1566 1567 1568 1568 1569 1569 1570 1571 1571 1572 1572 1573 1574 1575 1577 1578 1580 1582 1583
1523 1526 1530 1533 1536 1539 1542 1545 1547 1549 1551 1553 1554 1556 1558 1559 1560 1561 1562 1563 1564 1565 1565 1566 1567 1567 1568 1569 1569 1570 1570 1571 1571 1572 1571 1573 1575 1576 1577 1579 1581 1582 1584
1523 1526 1530 1533 1536 1539 1542 1545 1547 1549 1551 1553 1555 1557 1558 1559 1561 1562 1563 1564 1565 1565 1566 1566 1567 1567 1568 1569 1569 1570 1570 1571 1572 1571 1570 1572 1575 1577 1578 1579 1581 1583 1585
1522 1526 1530 1533 1537 1540 1543 1545 1547 1549 1551 1553 1555 1557 1558 1560 1562 1563 1564 1564 1565 1565 1566 1566 1567 1567 1568 1568 1569 1570 1570 1572 1571 1570 1571 1574 1575 1576 1578 1579 1581 1583 1585
1523 1526 1530 1533 1537 1540 1543 1545 1547 1550 1552 1554 1556 1557 1559 1561 1562 1563 1563 1564 1565 1565 1566 1566 1566 1567 1568 1568 1569 1570 1571 1571 1571 1571 1571 1574 1575 1576 1577 1579 1581 1583 1585
1522 1526 1529 1532 1536 1539 1542 1545 1547 1550 1552 1554 1556 1558 1559 1561 1562 1563 1563 1564 1564 1565 1565 1566 1566 1567 1567 1568 1568 1569 1570 1571 1571 1570 1570 1572 1574 1575 1577 1579 1580 1582 1584
1520 1523 1528 1531 1534 1538 1542 1545 1547 1549 1552 1554 1555 1558 1559 1560 1561 1562 1562 1563 1564 1565 1565 1565 1566 1566 1566 1567 1567 1568 1568 1569 1570 1570 1571 1572 1573 1575 1576 1578 1579 1581 1583
1520 1523 1527 1531 1535 1538 1542 1544 1547 1549 1551 1554 1555 1557 1558 1559 1560 1561 1562 1563 1563 1564 1564 1564 1564 1565 1565 1566 1566 1566 1567 1567 1568 1569 1570 1571 1572 1573 1575 1576 1578 1580 1582
1518 1522 1526 1530 1534 1538 1541 1545 1547 1549 1551 1552 1554 1556 1557 1558 1560 1561 1562 1562 1562 1563 1563 1564 1564 1564 1565 1565 1565 1566 1566 1566 1567 1568 1569 1570 1571 1572 1573 1575 1576 1578 1580
1517 1521 1525 1529 1533 1537 1541 1544 1547 1549 1551 1552 1553 1555 1557 1558 1559 1560 1561 1561 1562 1562 1563 1563 1563 1564 1564 1564 1564 1565 1565 1566 1566 1567 1568 1569 1570 1571 1572 1573 1575 1576 1578
1515 1520 1524 1528 1532 1537 1540 1544 1546 1548 1550 1552 1553 1555 1556 1557 1558 1559 1560 1560 1561 1562 1562 1562 1562 1562 1563 1563 1564 1564 1565 1565 1566 1567 1567 1568 1569 1570 1570 1571 1573 1574 1575
1515 1519 1523 1527 1532 1536 1539 1542 1545 1548 1550 1552 1553 1554 1556 1557 1558 1559 1559 1559 1560 1561 1561 1561 1561 1562 1562 1563 1563 1564 1565 1565 1566 1566 1567 1568 1568 1569 1569 1570 1571 1572 1573
1514 1518 1522 1526 1531 1535 1538 1541 1544 1547 1550 1552 1553 1554 1555 1556 1557 1558 1559 1559 1559 1560 1560 1560 1561 1562 1563 1563 1563 1563 1564 1565 1565 1566 1567 1567 1568 1568 1569 1569 1570 1570 1571
1512 1515 1520 1525 1529 1533 1537 1540 1544 1547 1549 1551 1552 1553 1555 1556 1556 1558 1558 1559 1559 1559 1560 1560 1561 1561 1563 1563 1563 1563 1564 1566 1565 1566 1566 1567 1567 1568 1568 1569 1569 1569 1569
1511 1515 1519 1524 1528 1532 1536 1539 1543 1546 1548 1550 1552 1553 1554 1555 1556 1557 1557 1558 1559 1559 1559 1560 1560 1561 1562 1563 1563 1563 1563 1564 1565 1566 1566 1567 1567 1567 1568 1568 1568 1568 1568
1509 1513 1518 1522 1526 1530 1534 1538 1541 1543 1546 1549 1550 1551 1553 1554 1555 1556 1557 1557 1558 1559 1559 1560 1560 1561 1561 1562 1563 1563 1564 1564 1565 1566 1567 1566 1566 1567 1567 1568 1568 1568 1568
1508 1512 1516 1521 1524 1528 1533 1536 1539 1543 1545 1547 1549 1550 1551 1552 1554 1555 1556 1556 1557 1558 1558 1558 1559 1559 1561 1561 1562 1563 1564 1564 1565 1565 1566 1566 1566 1566 1566 1567 1567 1567 1567
1507 1511 1515 1519 1523 1527 1531 1534 1538 1541 1544 1546 1547 1548 1550 1551 1552 1553 1554 1555 1556 1557 1557 1557 1558 1559 1559 1560 1561 1562 1563 1564 1564 1564 1565 1565 1565 1565 1565 1566 1566 1566 1566